Total_Precipitation_Accumulation
0.00 0.00 0.00 0.00 0.00 0.00 0.00 0.00 0.00 0.00 0.00 0.00 0.00 0.00 0.01 0.00 0.00 0.00 0.00 0.00 0.00 0.00 0.00 0.00 0.00 0.00 0.00 0.00 0.00 0.00 0.00 0.01 0.00 0.00 0.00 0.00 0.00 0.00 0.00 0.00 0.00 0.00 0.00 0.00
0.00 0.00 0.00 0.00 0.00 0.00 0.00 0.00 0.00 0.00 0.00 0.00 0.00 0.00 0.01 0.00 0.00 0.01 0.00 0.00 0.00 0.00 0.00 0.00 0.00 0.00 0.00 0.00 0.00 0.00 0.00 0.00 0.00 0.00 0.00 0.00 0.00 0.00 0.00 0.00 0.00 0.00 0.00 0.00
0.00 0.00 0.00 0.00 0.00 0.00 0.00 0.00 0.00 0.00 0.00 0.00 0.00 0.00 0.00 0.00 0.00 0.00 0.02 0.06 0.03 0.00 0.00 0.00 0.00 0.00 0.00 0.00 0.00 0.00 0.00 0.00 0.00 0.00 0.00 0.00 0.00 0.00 0.00 0.00 0.00 0.00 0.00 0.00
0.00 0.00 0.00 0.00 0.00 0.00 0.00 0.00 0.00 0.00 0.00 0.00 0.00 0.00 0.00 0.00 0.01 0.00 0.05 0.10 0.06 0.01 0.00 0.00 0.00 0.00 0.00 0.00 0.00 0.00 0.00 0.00 0.00 0.00 0.00 0.00 0.00 0.00 0.00 0.00 0.00 0.00 0.00 0.00
0.00 0.00 0.00 0.00 0.00 0.00 0.00 0.00 0.00 0.00 0.00 0.00 0.00 0.00 0.00 0.00 0.01 0.01 0.03 0.11 0.15 0.07 0.02 0.00 0.01 0.02 0.02 0.00 0.00 0.00 0.00 0.00 0.00 0.00 0.00 0.00 0.00 0.00 0.00 0.00 0.00 0.00 0.00 0.00
0.00 0.00 0.00 0.00 0.00 0.00 0.00 0.00 0.00 0.00 0.00 0.00 0.00 0.00 0.00 0.00 0.00 0.03 0.03 0.12 0.21 0.34 0.60 0.25 0.05 0.02 0.04 0.03 0.01 0.00 0.00 0.00 0.00 0.00 0.00 0.01 0.00 0.00 0.00 0.00 0.00 0.00 0.00 0.00
0.00 0.00 0.00 0.00 0.00 0.00 0.00 0.00 0.00 0.00 0.00 0.00 0.00 0.00 0.00 0.00 0.01 0.01 0.04 0.09 0.08 0.20 0.19 0.45 0.34 0.21 0.09 0.03 0.04 0.00 0.00 0.00 0.00 0.00 0.00 0.00 0.01 0.01 0.01 0.02 0.00 0.00 0.00 0.00
0.00 0.00 0.00 0.00 0.00 0.00 0.00 0.00 0.00 0.00 0.00 0.00 0.00 0.00 0.03 0.04 0.06 0.05 0.01 0.01 0.00 0.00 0.00 0.00 0.01 0.05 0.19 0.28 0.19 0.05 0.02 0.01 0.01 0.00 0.00 0.00 0.00 0.00 0.00 0.00 0.00 0.00 0.00 0.00
0.00 0.00 0.00 0.00 0.00 0.00 0.00 0.00 0.00 0.00 0.00 0.00 0.01 0.03 0.09 0.05 0.01 0.00 0.00 0.00 0.00 0.00 0.00 0.00 0.00 0.00 0.03 0.08 0.14 0.17 0.22 0.07 0.01 0.01 0.04 0.02 0.00 0.00 0.00 0.00 0.00 0.00 0.00 0.00
0.00 0.00 0.00 0.00 0.00 0.00 0.00 0.00 0.00 0.00 0.00 0.00 0.01 0.01 0.02 0.01 0.00 0.00 0.00 0.00 0.00 0.00 0.00 0.00 0.00 0.00 0.00 0.01 0.03 0.09 0.11 0.11 0.26 0.13 0.04 0.01 0.00 0.00 0.00 0.00 0.00 0.00 0.00 0.00
0.00 0.00 0.00 0.00 0.00 0.00 0.00 0.00 0.00 0.00 0.00 0.00 0.00 0.00 0.03 0.02 0.01 0.01 0.00 0.00 0.00 0.00 0.00 0.00 0.00 0.00 0.00 0.01 0.01 0.02 0.05 0.17 0.19 0.12 0.11 0.02 0.00 0.00 0.00 0.00 0.00 0.00 0.00 0.00
0.00 0.00 0.00 0.00 0.00 0.00 0.00 0.00 0.00 0.00 0.00 0.00 0.00 0.00 0.01 0.01 0.00 0.00 0.00 0.00 0.00 0.00 0.01 0.01 0.00 0.00 0.01 0.00 0.01 0.00 0.01 0.04 0.05 0.05 0.06 0.03 0.01 0.00 0.00 0.00 0.00 0.00 0.00 0.00
0.00 0.00 0.00 0.00 0.00 0.00 0.00 0.00 0.00 0.00 0.00 0.00 0.00 0.00 0.00 0.00 0.00 0.00 0.00 0.00 0.00 0.00 0.02 0.06 0.02 0.00 0.00 0.01 0.00 0.00 0.00 0.02 0.09 0.04 0.02 0.03 0.03 0.01 0.00 0.00 0.01 0.01 0.01 0.00
0.00 0.00 0.00 0.00 0.00 0.00 0.00 0.00 0.00 0.00 0.00 0.00 0.00 0.00 0.00 0.00 0.00 0.00 0.00 0.00 0.00 0.00 0.00 0.03 0.02 0.00 0.01 0.02 0.02 0.02 0.02 0.01 0.04 0.08 0.13 0.06 0.10 0.24 0.17 0.08 0.10 0.07 0.06 0.01
0.00 0.00 0.00 0.00 0.00 0.00 0.00 0.00 0.00 0.00 0.00 0.00 0.00 0.00 0.00 0.00 0.00 0.00 0.01 0.01 0.00 0.00 0.03 0.08 0.05 0.00 0.00 0.05 0.06 0.03 0.03 0.00 0.01 0.04 0.10 0.14 0.10 0.19 0.24 0.26 0.30 0.14 0.14 0.07
0.00 0.00 0.00 0.00 0.00 0.00 0.00 0.00 0.00 0.00 0.01 0.02 0.00 0.00 0.00 0.00 0.00 0.00 0.01 0.03 0.02 0.03 0.05 0.09 0.10 0.06 0.06 0.07 0.11 0.08 0.03 0.00 0.00 0.01 0.01 0.03 0.08 0.14 0.18 0.16 0.15 0.16 0.14 0.16
0.00 0.00 0.00 0.00 0.00 0.00 0.00 0.00 0.01 0.01 0.06 0.01 0.01 0.02 0.02 0.04 0.07 0.05 0.04 0.08 0.08 0.06 0.10 0.14 0.16 0.16 0.22 0.18 0.11 0.08 0.06 0.08 0.08 0.01 0.00 0.00 0.06 0.27 0.30 0.27 0.33 0.35 0.38 0.48
0.00 0.00 0.00 0.00 0.00 0.00 0.00 0.00 0.00 0.00 0.03 0.01 0.05 0.05 0.09 0.11 0.11 0.10 0.09 0.08 0.10 0.08 0.04 0.04 0.20 0.25 0.21 0.18 0.13 0.06 0.11 0.12 0.19 0.25 0.14 0.08 0.17 0.26 0.29 0.38 0.47 0.58 0.69 0.85
0.00 0.00 0.00 0.00 0.00 0.00 0.00 0.00 0.01 0.02 0.00 0.01 0.05 0.07 0.14 0.20 0.17 0.12 0.10 0.10 0.11 0.09 0.07 0.05 0.17 0.42 0.30 0.21 0.14 0.10 0.10 0.16 0.07 0.10 0.27 0.32 0.50 0.52 0.56 0.60 0.62 0.70 0.96 0.97
0.00 0.00 0.00 0.00 0.00 0.00 0.00 0.02 0.04 0.05 0.01 0.01 0.02 0.05 0.16 0.29 0.25 0.18 0.20 0.20 0.16 0.10 0.08 0.06 0.06 0.25 1.03 1.02 0.32 0.17 0.20 0.28 0.25 0.24 0.45 0.62 0.94 0.95 1.07 0.98 0.93 1.02 0.99 1.35
0.00 0.00 0.00 0.00 0.00 0.00 0.00 0.00 0.03 0.12 0.03 0.01 0.02 0.10 0.18 0.35 0.38 0.28 0.30 0.21 0.19 0.21 0.13 0.06 0.07 0.08 0.40 0.88 0.99 0.70 0.50 0.49 0.66 0.87 0.74 0.88 1.08 1.38 1.54 1.63 1.22 1.12 1.46 1.62
0.00 0.00 0.00 0.00 0.00 0.03 0.00 0.00 0.02 0.03 0.07 0.02 0.05 0.09 0.33 0.38 0.53 0.69 0.51 0.38 0.35 0.31 0.25 0.23 0.16 0.03 0.08 0.19 0.50 0.64 0.90 0.86 0.64 0.68 0.94 0.93 0.82 0.79 1.12 1.65 1.96 2.25 2.22 2.31
0.00 0.00 0.00 0.00 0.00 0.00 0.00 0.00 0.03 0.04 0.05 0.05 0.03 0.06 0.19 0.38 0.47 0.93 0.88 0.88 0.56 0.47 0.26 0.25 0.35 0.27 0.09 0.05 0.09 0.24 0.40 0.46 0.44 0.43 0.51 0.58 0.67 0.86 1.05 1.23 1.30 1.15 1.36 1.62
0.00 0.00 0.01 0.01 0.00 0.00 0.00 0.00 0.08 0.08 0.12 0.16 0.13 0.16 0.16 0.44 0.57 0.82 1.76 1.47 1.27 1.02 0.66 0.40 0.38 0.43 0.41 0.20 0.20 0.15 0.08 0.13 0.19 0.27 0.32 0.34 0.37 0.50 0.60 0.80 0.99 1.10 1.15 0.93
0.00 0.02 0.07 0.02 0.01 0.02 0.05 0.04 0.09 0.17 0.19 0.24 0.24 0.30 0.37 0.42 1.13 1.65 1.91 1.85 1.41 1.15 1.17 0.88 0.68 0.64 0.57 0.47 0.45 0.37 0.21 0.17 0.18 0.19 0.19 0.28 0.47 0.46 0.46 0.64 0.71 0.78 0.76 0.94
0.00 0.03 0.07 0.01 0.02 0.06 0.09 0.03 0.15 0.17 0.18 0.27 0.42 0.54 0.62 0.60 0.58 1.30 2.25 1.86 1.70 1.48 1.45 1.34 0.98 0.90 0.92 0.88 0.81 0.92 0.72 0.52 0.49 0.46 0.53 0.33 0.36 0.45 0.51 0.53 0.53 0.46 0.45 0.42